Year,Month,Day,Hour,Minute,Value (Times are PST for temperature in C)
2006,07,23,00,00,22.40
2006,07,23,00,01,22.40
2006,07,23,00,02,22.40
2006,07,23,00,03,22.40
2006,07,23,00,04,22.30
2006,07,23,00,05,22.30
2006,07,23,00,06,22.30
2006,07,23,00,07,22.30
2006,07,23,00,08,22.30
2006,07,23,00,09,22.30
2006,07,23,00,10,22.30
2006,07,23,00,12,22.20
2006,07,23,00,13,22.20
2006,07,23,00,14,22.20
2006,07,23,00,15,22.20
2006,07,23,00,16,22.10
2006,07,23,00,17,22.10
2006,07,23,00,18,22.00
2006,07,23,00,19,22.00
2006,07,23,00,20,21.90
2006,07,23,00,21,21.90
2006,07,23,00,22,21.80
2006,07,23,00,23,21.80
2006,07,23,00,24,21.70
2006,07,23,00,25,21.70
2006,07,23,00,26,21.60
2006,07,23,00,27,21.60
2006,07,23,00,28,21.60
2006,07,23,00,29,21.60
2006,07,23,00,30,21.60
2006,07,23,00,31,21.60
2006,07,23,00,32,21.60
2006,07,23,00,33,21.60
2006,07,23,00,34,21.60
2006,07,23,00,35,21.60
2006,07,23,00,36,21.60
2006,07,23,00,37,21.60
2006,07,23,00,38,21.60
2006,07,23,00,39,21.60
2006,07,23,00,40,21.60
2006,07,23,00,41,21.60
2006,07,23,00,42,21.60
2006,07,23,00,43,21.60
2006,07,23,00,44,21.60
2006,07,23,00,45,21.60
2006,07,23,00,46,21.60
2006,07,23,00,47,21.60
2006,07,23,00,48,21.60
2006,07,23,00,49,21.50
2006,07,23,00,50,21.50
2006,07,23,00,51,21.50
2006,07,23,00,52,21.50
2006,07,23,00,53,21.40
2006,07,23,00,54,21.40
2006,07,23,00,55,21.40
2006,07,23,00,56,21.40
2006,07,23,00,57,21.40
2006,07,23,00,58,21.30
2006,07,23,00,59,21.30
2006,07,23,01,00,21.30
2006,07,23,01,01,21.30
2006,07,23,01,02,21.30
2006,07,23,01,03,21.30
2006,07,23,01,04,21.30
2006,07,23,01,05,21.30
2006,07,23,01,06,21.30
2006,07,23,01,07,21.30
2006,07,23,01,08,21.30
2006,07,23,01,09,21.30
2006,07,23,01,10,21.20
2006,07,23,01,11,21.20
2006,07,23,01,12,21.20
2006,07,23,01,13,21.20
2006,07,23,01,14,21.20
2006,07,23,01,15,21.20
2006,07,23,01,16,21.20
2006,07,23,01,17,21.20
2006,07,23,01,18,21.20
2006,07,23,01,19,21.20
2006,07,23,01,20,21.20
2006,07,23,01,21,21.20
2006,07,23,01,22,21.20
2006,07,23,01,23,21.20
2006,07,23,01,24,21.20
2006,07,23,01,25,21.10
2006,07,23,01,26,21.10
2006,07,23,01,27,21.10
2006,07,23,01,28,21.10
2006,07,23,01,29,21.10
2006,07,23,01,30,21.10
2006,07,23,01,31,21.10
2006,07,23,01,32,21.10
2006,07,23,01,33,21.10
2006,07,23,01,34,21.00
2006,07,23,01,35,21.00
2006,07,23,01,36,21.00
2006,07,23,01,37,21.00
2006,07,23,01,38,21.00
2006,07,23,01,39,21.00
2006,07,23,01,40,20.90
2006,07,23,01,41,20.90
2006,07,23,01,42,20.90
2006,07,23,01,43,20.90
2006,07,23,01,44,20.90
2006,07,23,01,45,20.90
2006,07,23,01,46,20.90
2006,07,23,01,47,20.80
2006,07,23,01,48,20.80
2006,07,23,01,49,20.80
2006,07,23,01,50,20.80
2006,07,23,01,51,20.70
2006,07,23,01,52,20.70
2006,07,23,01,53,20.70
2006,07,23,01,54,20.70
2006,07,23,01,55,20.60
2006,07,23,01,56,20.60
2006,07,23,01,57,20.60
2006,07,23,01,58,20.60
2006,07,23,01,59,20.60
2006,07,23,02,00,20.60
2006,07,23,02,01,20.60
2006,07,23,02,02,20.60
2006,07,23,02,03,20.60
2006,07,23,02,04,20.60
2006,07,23,02,05,20.60
2006,07,23,02,06,20.60
2006,07,23,02,07,20.60
2006,07,23,02,08,20.60
2006,07,23,02,09,20.60
2006,07,23,02,10,20.60
2006,07,23,02,11,20.60
2006,07,23,02,12,20.50
2006,07,23,02,13,20.50
2006,07,23,02,14,20.50
2006,07,23,02,15,20.40
2006,07,23,02,16,20.40
2006,07,23,02,17,20.40
2006,07,23,02,18,20.40
2006,07,23,02,19,20.40
2006,07,23,02,20,20.30
2006,07,23,02,21,20.30
2006,07,23,02,22,20.30
2006,07,23,02,23,20.30
2006,07,23,02,24,20.30
2006,07,23,02,25,20.30
2006,07,23,02,26,20.40
2006,07,23,02,27,20.30
2006,07,23,02,28,20.30
2006,07,23,02,29,20.30
2006,07,23,02,30,20.30
2006,07,23,02,31,20.30
2006,07,23,02,32,20.30
2006,07,23,02,33,20.30
2006,07,23,02,34,20.30
2006,07,23,02,35,20.30
2006,07,23,02,36,20.30
2006,07,23,02,37,20.40
2006,07,23,02,38,20.40
2006,07,23,02,39,20.40
2006,07,23,02,40,20.40
2006,07,23,02,41,20.40
2006,07,23,02,42,20.40
2006,07,23,02,43,20.40
2006,07,23,02,44,20.40
2006,07,23,02,45,20.40
2006,07,23,02,46,20.30
2006,07,23,02,47,20.30
2006,07,23,02,48,20.30
2006,07,23,02,49,20.30
2006,07,23,02,50,20.30
2006,07,23,02,51,20.20
2006,07,23,02,52,20.20
2006,07,23,02,53,20.20
2006,07,23,02,54,20.20
2006,07,23,02,55,20.20
2006,07,23,02,56,20.10
2006,07,23,02,57,20.10
2006,07,23,02,58,20.10
2006,07,23,02,59,20.10
2006,07,23,03,00,20.10
2006,07,23,03,01,20.10
2006,07,23,03,02,20.10
2006,07,23,03,03,20.00
2006,07,23,03,04,20.00
2006,07,23,03,05,20.00
2006,07,23,03,06,20.00
2006,07,23,03,07,20.00
2006,07,23,03,08,20.00
2006,07,23,03,09,20.00
2006,07,23,03,10,20.00
2006,07,23,03,11,20.00
2006,07,23,03,12,20.00
2006,07,23,03,13,20.00
2006,07,23,03,14,20.00
2006,07,23,03,15,20.00
2006,07,23,03,16,20.00
2006,07,23,03,17,20.00
2006,07,23,03,18,20.00
2006,07,23,03,19,20.00
2006,07,23,03,20,20.00
2006,07,23,03,21,20.00
2006,07,23,03,22,20.00
2006,07,23,03,23,20.00
2006,07,23,03,24,20.00
2006,07,23,03,25,20.00
2006,07,23,03,26,20.00
2006,07,23,03,27,20.00
2006,07,23,03,28,20.00
2006,07,23,03,29,20.00
2006,07,23,03,30,19.90
2006,07,23,03,31,19.90
2006,07,23,03,32,19.90
2006,07,23,03,33,19.90
2006,07,23,03,34,19.90
2006,07,23,03,35,19.90
2006,07,23,03,36,19.90
2006,07,23,03,37,19.90
2006,07,23,03,38,19.90
2006,07,23,03,39,19.90
2006,07,23,03,40,19.80
2006,07,23,03,41,19.80
2006,07,23,03,42,19.80
2006,07,23,03,43,19.80
2006,07,23,03,44,19.80
2006,07,23,03,45,19.70
2006,07,23,03,46,19.70
2006,07,23,03,47,19.70
2006,07,23,03,48,19.70
2006,07,23,03,49,19.70
2006,07,23,03,50,19.70
2006,07,23,03,51,19.70
2006,07,23,03,52,19.70
2006,07,23,03,53,19.70
2006,07,23,03,54,19.70
2006,07,23,03,55,19.70
2006,07,23,03,56,19.70
2006,07,23,03,57,19.70
2006,07,23,03,58,19.60
2006,07,23,03,59,19.60
2006,07,23,04,00,19.60
2006,07,23,04,01,19.50
2006,07,23,04,02,19.50
2006,07,23,04,03,19.40
2006,07,23,04,04,19.40
2006,07,23,04,05,19.40
2006,07,23,04,06,19.40
2006,07,23,04,07,19.40
2006,07,23,04,08,19.40
2006,07,23,04,09,19.40
2006,07,23,04,10,19.40
2006,07,23,04,11,19.40
2006,07,23,04,12,19.40
2006,07,23,04,13,19.40
2006,07,23,04,14,19.40
2006,07,23,04,15,19.40
2006,07,23,04,16,19.40
2006,07,23,04,17,19.40
2006,07,23,04,18,19.40
2006,07,23,04,19,19.40
2006,07,23,04,20,19.40
2006,07,23,04,21,19.40
2006,07,23,04,22,19.40
2006,07,23,04,23,19.40
2006,07,23,04,24,19.40
2006,07,23,04,25,19.40
2006,07,23,04,26,19.40
2006,07,23,04,27,19.40
2006,07,23,04,28,19.30
2006,07,23,04,29,19.30
2006,07,23,04,30,19.30
2006,07,23,04,31,19.30
2006,07,23,04,32,19.30
2006,07,23,04,33,19.30
2006,07,23,04,34,19.30
2006,07,23,04,35,19.30
2006,07,23,04,36,19.30
2006,07,23,04,37,19.30
2006,07,23,04,38,19.30
2006,07,23,04,39,19.30
2006,07,23,04,40,19.20
2006,07,23,04,41,19.20
2006,07,23,04,42,19.20
2006,07,23,04,43,19.20
2006,07,23,04,44,19.20
2006,07,23,04,45,19.20
2006,07,23,04,46,19.20
2006,07,23,04,47,19.20
2006,07,23,04,48,19.10
2006,07,23,04,49,19.10
2006,07,23,04,50,19.10
2006,07,23,04,51,19.10
2006,07,23,04,52,19.10
2006,07,23,04,53,19.10
2006,07,23,04,54,19.10
2006,07,23,04,55,19.10
2006,07,23,04,56,19.20
2006,07,23,04,57,19.10
2006,07,23,04,58,19.10
2006,07,23,04,59,19.10
2006,07,23,05,00,19.10
2006,07,23,05,01,19.00
2006,07,23,05,02,19.00
2006,07,23,05,03,19.00
2006,07,23,05,04,19.00
2006,07,23,05,05,18.90
2006,07,23,05,06,18.90
2006,07,23,05,07,18.90
2006,07,23,05,08,18.90
2006,07,23,05,09,18.90
2006,07,23,05,10,18.90
2006,07,23,05,11,18.90
2006,07,23,05,12,18.90
2006,07,23,05,13,18.90
2006,07,23,05,14,18.90
2006,07,23,05,15,18.80
2006,07,23,05,16,18.80
2006,07,23,05,17,18.80
2006,07,23,05,18,18.80
2006,07,23,05,19,18.80
2006,07,23,05,20,18.80
2006,07,23,05,21,18.80
2006,07,23,05,22,18.80
2006,07,23,05,23,18.80
2006,07,23,05,24,18.80
2006,07,23,05,25,18.80
2006,07,23,05,26,18.80
2006,07,23,05,27,18.80
2006,07,23,05,28,18.80
2006,07,23,05,29,18.80
2006,07,23,05,30,18.80
2006,07,23,05,31,18.70
2006,07,23,05,32,18.70
2006,07,23,05,33,18.70
2006,07,23,05,34,18.60
2006,07,23,05,35,18.60
2006,07,23,05,36,18.60
2006,07,23,05,37,18.60
2006,07,23,05,38,18.50
2006,07,23,05,39,18.50
2006,07,23,05,40,18.50
2006,07,23,05,41,18.50
2006,07,23,05,42,18.50
2006,07,23,05,43,18.50
2006,07,23,05,44,18.50
2006,07,23,05,45,18.50
2006,07,23,05,46,18.50
2006,07,23,05,47,18.50
2006,07,23,05,48,18.50
2006,07,23,05,49,18.50
2006,07,23,05,50,18.50
2006,07,23,05,51,18.50
2006,07,23,05,52,18.50
2006,07,23,05,53,18.60
2006,07,23,05,54,18.60
2006,07,23,05,55,18.60
2006,07,23,05,56,18.50
2006,07,23,05,57,18.50
2006,07,23,05,58,18.50
2006,07,23,05,59,18.50
2006,07,23,06,00,18.50
2006,07,23,06,01,18.50
2006,07,23,06,02,18.50
2006,07,23,06,03,18.50
2006,07,23,06,04,18.50
2006,07,23,06,05,18.50
2006,07,23,06,06,18.50
2006,07,23,06,07,18.50
2006,07,23,06,08,18.40
2006,07,23,06,09,18.40
2006,07,23,06,10,18.40
2006,07,23,06,11,18.40
2006,07,23,06,12,18.40
2006,07,23,06,13,18.40
2006,07,23,06,14,18.40
2006,07,23,06,15,18.40
2006,07,23,06,16,18.40
2006,07,23,06,17,18.40
2006,07,23,06,18,18.40
2006,07,23,06,19,18.40
2006,07,23,06,20,18.40
2006,07,23,06,21,18.50
2006,07,23,06,22,18.50
2006,07,23,06,23,18.50
2006,07,23,06,24,18.50
2006,07,23,06,25,18.50
2006,07,23,06,26,18.40
2006,07,23,06,27,18.40
2006,07,23,06,28,18.40
2006,07,23,06,29,18.40
2006,07,23,06,30,18.40
2006,07,23,06,31,18.40
2006,07,23,06,32,18.40
2006,07,23,06,33,18.40
2006,07,23,06,34,18.40
2006,07,23,06,35,18.40
2006,07,23,06,36,18.40
2006,07,23,06,37,18.40
2006,07,23,06,38,18.40
2006,07,23,06,39,18.40
2006,07,23,06,40,18.40
2006,07,23,06,41,18.40
2006,07,23,06,42,18.50
2006,07,23,06,43,18.50
2006,07,23,06,44,18.50
2006,07,23,06,45,18.50
2006,07,23,06,46,18.50
2006,07,23,06,47,18.50
2006,07,23,06,48,18.50
2006,07,23,06,49,18.60
2006,07,23,06,50,18.60
2006,07,23,06,51,18.60
2006,07,23,06,52,18.60
2006,07,23,06,53,18.60
2006,07,23,06,54,18.60
2006,07,23,06,55,18.60
2006,07,23,06,56,18.70
2006,07,23,06,57,18.70
2006,07,23,06,58,18.70
2006,07,23,06,59,18.70
2006,07,23,07,00,18.70
2006,07,23,07,01,18.80
2006,07,23,07,02,18.80
2006,07,23,07,03,18.80
2006,07,23,07,04,18.80
2006,07,23,07,05,18.90
2006,07,23,07,06,18.90
2006,07,23,07,07,18.90
2006,07,23,07,08,19.00
2006,07,23,07,09,19.00
2006,07,23,07,10,19.10
2006,07,23,07,11,19.20
2006,07,23,07,12,19.30
2006,07,23,07,13,19.40
2006,07,23,07,14,19.50
2006,07,23,07,15,19.50
2006,07,23,07,16,19.60
2006,07,23,07,17,19.70
2006,07,23,07,18,19.80
2006,07,23,07,19,19.90
2006,07,23,07,20,20.00
2006,07,23,07,21,20.10
2006,07,23,07,22,20.20
2006,07,23,07,23,20.30
2006,07,23,07,24,20.40
2006,07,23,07,25,20.50
2006,07,23,07,26,20.60
2006,07,23,07,27,20.70
2006,07,23,07,28,20.70
2006,07,23,07,29,20.80
2006,07,23,07,30,21.10
2006,07,23,07,31,21.20
2006,07,23,07,32,21.30
2006,07,23,07,33,21.40
2006,07,23,07,34,21.40
2006,07,23,07,35,21.50
2006,07,23,07,36,21.50
2006,07,23,07,37,21.60
2006,07,23,07,38,21.60
2006,07,23,07,39,21.60
2006,07,23,07,40,21.60
2006,07,23,07,41,21.70
2006,07,23,07,42,21.70
2006,07,23,07,43,21.70
2006,07,23,07,44,21.80
2006,07,23,07,45,21.80
2006,07,23,07,46,21.80
2006,07,23,07,47,21.90
2006,07,23,07,48,22.00
2006,07,23,07,49,22.10
2006,07,23,07,50,22.20
2006,07,23,07,51,22.30
2006,07,23,07,52,22.40
2006,07,23,07,53,22.50
2006,07,23,07,54,22.60
2006,07,23,07,55,22.70
2006,07,23,07,56,22.70
2006,07,23,07,57,22.80
2006,07,23,07,58,22.90
2006,07,23,07,59,23.00
2006,07,23,08,00,23.20
2006,07,23,08,01,23.20
2006,07,23,08,02,23.30
2006,07,23,08,03,23.30
2006,07,23,08,04,23.30
2006,07,23,08,05,23.30
2006,07,23,08,06,23.30
2006,07,23,08,07,23.20
2006,07,23,08,08,23.20
2006,07,23,08,09,23.20
2006,07,23,08,10,23.30
2006,07,23,08,11,23.30
2006,07,23,08,12,23.40
2006,07,23,08,13,23.50
2006,07,23,08,14,23.60
2006,07,23,08,15,23.70
2006,07,23,08,16,23.80
2006,07,23,08,17,23.80
2006,07,23,08,18,23.90
2006,07,23,08,19,24.00
2006,07,23,08,20,24.00
2006,07,23,08,21,24.10
2006,07,23,08,22,24.10
2006,07,23,08,23,24.10
2006,07,23,08,24,24.20
2006,07,23,08,25,24.20
2006,07,23,08,26,24.30
2006,07,23,08,27,24.30
2006,07,23,08,28,24.30
2006,07,23,08,29,24.40
2006,07,23,08,30,24.50
2006,07,23,08,31,24.50
2006,07,23,08,32,24.60
2006,07,23,08,33,24.70
2006,07,23,08,34,24.70
2006,07,23,08,35,24.80
2006,07,23,08,36,24.80
2006,07,23,08,37,24.90
2006,07,23,08,38,24.90
2006,07,23,08,39,25.00
2006,07,23,08,40,25.20
2006,07,23,08,41,25.20
2006,07,23,08,42,25.30
2006,07,23,08,43,25.40
2006,07,23,08,44,25.40
2006,07,23,08,45,25.50
2006,07,23,08,46,25.50
2006,07,23,08,47,25.60
2006,07,23,08,48,25.70
2006,07,23,08,49,25.70
2006,07,23,08,50,25.80
2006,07,23,08,51,25.80
2006,07,23,08,52,25.70
2006,07,23,08,53,25.70
2006,07,23,08,54,25.60
2006,07,23,08,55,25.60
2006,07,23,08,56,25.60
2006,07,23,08,57,25.70
2006,07,23,08,58,25.70
2006,07,23,08,59,25.70
2006,07,23,09,00,25.70
2006,07,23,09,01,25.70
2006,07,23,09,02,25.70
2006,07,23,09,03,25.70
2006,07,23,09,04,25.70
2006,07,23,09,05,25.60
2006,07,23,09,06,25.60
2006,07,23,09,07,25.70
2006,07,23,09,08,25.70
2006,07,23,09,09,25.70
2006,07,23,09,10,25.60
2006,07,23,09,11,25.70
2006,07,23,09,12,25.70
2006,07,23,09,13,25.70
2006,07,23,09,14,25.70
2006,07,23,09,15,25.80
2006,07,23,09,16,25.80
2006,07,23,09,17,25.90
2006,07,23,09,18,25.90
2006,07,23,09,19,25.90
2006,07,23,09,20,25.90
2006,07,23,09,21,25.90
2006,07,23,09,22,25.90
2006,07,23,09,23,25.90
2006,07,23,09,24,25.90
2006,07,23,09,25,25.90
2006,07,23,09,26,25.90
2006,07,23,09,27,25.90
2006,07,23,09,28,25.90
2006,07,23,09,29,25.90
2006,07,23,09,30,25.90
2006,07,23,09,31,25.90
2006,07,23,09,32,26.00
2006,07,23,09,33,26.00
2006,07,23,09,34,26.10
2006,07,23,09,35,26.10
2006,07,23,09,36,26.20
2006,07,23,09,37,26.20
2006,07,23,09,38,26.20
2006,07,23,09,39,26.20
2006,07,23,09,40,26.20
2006,07,23,09,41,26.30
2006,07,23,09,42,26.30
2006,07,23,09,43,26.30
2006,07,23,09,44,26.30
2006,07,23,09,45,26.30
2006,07,23,09,46,26.40
2006,07,23,09,47,26.40
2006,07,23,09,48,26.40
2006,07,23,09,49,26.40
2006,07,23,09,50,26.40
2006,07,23,09,51,26.30
2006,07,23,09,52,26.30
2006,07,23,09,53,26.30
2006,07,23,09,54,26.30
2006,07,23,09,55,26.30
2006,07,23,09,56,26.30
2006,07,23,09,57,26.20
2006,07,23,09,58,26.20
2006,07,23,09,59,26.20
2006,07,23,10,00,26.20
2006,07,23,10,01,26.20
2006,07,23,10,02,26.20
2006,07,23,10,03,26.20
2006,07,23,10,04,26.20
2006,07,23,10,05,26.20
2006,07,23,10,06,26.20
2006,07,23,10,07,26.30
2006,07,23,10,08,26.30
2006,07,23,10,09,26.30
2006,07,23,10,10,26.40
2006,07,23,10,11,26.40
2006,07,23,10,12,26.40
2006,07,23,10,13,26.40
2006,07,23,10,14,26.40
2006,07,23,10,15,26.40
2006,07,23,10,16,26.30
2006,07,23,10,17,26.30
2006,07,23,10,18,26.40
2006,07,23,10,19,26.40
2006,07,23,10,20,26.50
2006,07,23,10,21,26.50
2006,07,23,10,22,26.60
2006,07,23,10,23,26.70
2006,07,23,10,24,26.70
2006,07,23,10,25,26.80
2006,07,23,10,26,26.80
2006,07,23,10,27,26.90
2006,07,23,10,28,27.00
2006,07,23,10,29,27.10
2006,07,23,10,30,27.10
2006,07,23,10,31,27.10
2006,07,23,10,32,27.20
2006,07,23,10,33,27.20
2006,07,23,10,34,27.20
2006,07,23,10,35,27.20
2006,07,23,10,36,27.10
2006,07,23,10,37,27.10
2006,07,23,10,38,27.10
2006,07,23,10,39,27.10
2006,07,23,10,40,27.10
2006,07,23,10,41,27.00
2006,07,23,10,42,27.00
2006,07,23,10,43,27.00
2006,07,23,10,44,27.00
2006,07,23,10,45,27.00
2006,07,23,10,46,26.90
2006,07,23,10,47,26.90
2006,07,23,10,48,26.90
2006,07,23,10,49,27.00
2006,07,23,10,50,27.00
2006,07,23,10,51,27.00
2006,07,23,10,52,27.10
2006,07,23,10,53,27.10
2006,07,23,10,54,27.10
2006,07,23,10,55,27.10
2006,07,23,10,56,27.10
2006,07,23,10,57,27.10
2006,07,23,10,58,27.10
2006,07,23,10,59,27.10
2006,07,23,11,00,27.10
2006,07,23,11,01,27.10
2006,07,23,11,02,27.20
2006,07,23,11,03,27.20
2006,07,23,11,04,27.30
2006,07,23,11,05,27.40
2006,07,23,11,06,27.50
2006,07,23,11,07,27.60
2006,07,23,11,08,27.60
2006,07,23,11,09,27.60
2006,07,23,11,10,27.60
2006,07,23,11,11,27.60
2006,07,23,11,12,27.70
2006,07,23,11,13,27.70
2006,07,23,11,14,27.70
2006,07,23,11,15,27.70
2006,07,23,11,16,27.70
2006,07,23,11,17,27.80
2006,07,23,11,18,27.80
2006,07,23,11,19,27.80
2006,07,23,11,20,27.90
2006,07,23,11,21,27.90
2006,07,23,11,22,27.80
2006,07,23,11,23,27.80
2006,07,23,11,24,27.80
2006,07,23,11,25,27.90
2006,07,23,11,26,27.90
2006,07,23,11,27,28.00
2006,07,23,11,28,28.10
2006,07,23,11,29,28.10
2006,07,23,11,30,28.10
2006,07,23,11,31,28.00
2006,07,23,11,32,28.10
2006,07,23,11,33,28.10
2006,07,23,11,34,28.20
2006,07,23,11,35,28.30
2006,07,23,11,36,28.40
2006,07,23,11,37,28.50
2006,07,23,11,38,28.60
2006,07,23,11,39,28.70
2006,07,23,11,40,28.80
2006,07,23,11,41,28.80
2006,07,23,11,42,28.90
2006,07,23,11,43,28.90
2006,07,23,11,44,28.90
2006,07,23,11,45,29.00
2006,07,23,11,46,29.00
2006,07,23,11,47,29.10
2006,07,23,11,48,29.10
2006,07,23,11,49,29.00
2006,07,23,11,50,29.00
2006,07,23,11,51,28.90
2006,07,23,11,52,28.90
2006,07,23,11,53,28.90
2006,07,23,11,54,28.90
2006,07,23,11,55,29.00
2006,07,23,11,56,29.00
2006,07,23,11,57,29.00
2006,07,23,11,58,28.90
2006,07,23,11,59,28.90
2006,07,23,12,00,28.90
2006,07,23,12,01,28.90
2006,07,23,12,02,29.00
2006,07,23,12,03,28.90
2006,07,23,12,04,28.90
2006,07,23,12,05,28.90
2006,07,23,12,06,28.80
2006,07,23,12,07,28.80
2006,07,23,12,08,28.80
2006,07,23,12,09,28.70
2006,07,23,12,10,28.70
2006,07,23,12,11,28.60
2006,07,23,12,12,28.60
2006,07,23,12,13,28.60
2006,07,23,12,14,28.60
2006,07,23,12,15,28.60
2006,07,23,12,16,28.50
2006,07,23,12,17,28.40
2006,07,23,12,18,28.40
2006,07,23,12,19,28.30
2006,07,23,12,20,28.20
2006,07,23,12,21,28.20
2006,07,23,12,22,28.20
2006,07,23,12,23,28.20
2006,07,23,12,24,28.10
2006,07,23,12,25,28.10
2006,07,23,12,26,28.10
2006,07,23,12,27,28.20
2006,07,23,12,28,28.20
2006,07,23,12,29,28.20
2006,07,23,12,30,28.30
2006,07,23,12,31,28.30
2006,07,23,12,32,28.40
2006,07,23,12,33,28.40
2006,07,23,12,34,28.50
2006,07,23,12,35,28.60
2006,07,23,12,36,28.70
2006,07,23,12,37,28.80
2006,07,23,12,38,28.80
2006,07,23,12,39,28.90
2006,07,23,12,40,28.90
2006,07,23,12,41,29.00
2006,07,23,12,42,29.00
2006,07,23,12,43,28.80
2006,07,23,12,44,28.70
2006,07,23,12,45,28.60
2006,07,23,12,46,28.60
2006,07,23,12,47,28.60
2006,07,23,12,48,28.60
2006,07,23,12,49,28.70
2006,07,23,12,50,28.70
2006,07,23,12,51,28.70
2006,07,23,12,52,28.70
2006,07,23,12,53,28.80
2006,07,23,12,54,28.80
2006,07,23,12,55,28.70
2006,07,23,12,56,28.70
2006,07,23,12,57,28.70
2006,07,23,12,58,28.60
2006,07,23,12,59,28.60
2006,07,23,13,00,28.70
2006,07,23,13,01,28.70
2006,07,23,13,02,28.80
2006,07,23,13,03,28.90
2006,07,23,13,04,28.90
2006,07,23,13,05,28.90
2006,07,23,13,06,28.90
2006,07,23,13,07,28.90
2006,07,23,13,08,29.00
2006,07,23,13,09,29.00
2006,07,23,13,10,29.10
2006,07,23,13,11,29.20
2006,07,23,13,12,29.20
2006,07,23,13,13,29.30
2006,07,23,13,14,29.40
2006,07,23,13,15,29.40
2006,07,23,13,16,29.40
2006,07,23,13,17,29.40
2006,07,23,13,18,29.40
2006,07,23,13,19,29.50
2006,07,23,13,20,29.50
2006,07,23,13,21,29.50
2006,07,23,13,22,29.50
2006,07,23,13,23,29.50
2006,07,23,13,24,29.60
2006,07,23,13,25,29.70
2006,07,23,13,26,29.70
2006,07,23,13,27,29.70
2006,07,23,13,28,29.80
2006,07,23,13,29,29.80
2006,07,23,13,30,29.80
2006,07,23,13,31,29.90
2006,07,23,13,32,29.80
2006,07,23,13,33,29.90
2006,07,23,13,34,29.90
2006,07,23,13,35,29.90
2006,07,23,13,36,29.80
2006,07,23,13,37,29.80
2006,07,23,13,38,29.80
2006,07,23,13,39,29.80
2006,07,23,13,40,29.80
2006,07,23,13,41,29.80
2006,07,23,13,42,29.90
2006,07,23,13,43,30.00
2006,07,23,13,44,30.00
2006,07,23,13,45,30.00
2006,07,23,13,46,30.00
2006,07,23,13,47,29.90
2006,07,23,13,48,29.90
2006,07,23,13,49,29.80
2006,07,23,13,50,29.80
2006,07,23,13,51,29.80
2006,07,23,13,52,29.80
2006,07,23,13,53,29.80
2006,07,23,13,54,29.80
2006,07,23,13,55,29.80
2006,07,23,13,56,29.80
2006,07,23,13,57,29.80
2006,07,23,13,58,29.80
2006,07,23,13,59,29.80
2006,07,23,14,00,29.80
2006,07,23,14,01,29.80
2006,07,23,14,02,29.80
2006,07,23,14,03,29.80
2006,07,23,14,04,29.80
2006,07,23,14,05,29.70
2006,07,23,14,06,29.70
2006,07,23,14,07,29.70
2006,07,23,14,08,29.70
2006,07,23,14,09,29.70
2006,07,23,14,10,29.60
2006,07,23,14,11,29.60
2006,07,23,14,12,29.60
2006,07,23,14,13,29.60
2006,07,23,14,14,29.60
2006,07,23,14,15,29.60
2006,07,23,14,16,29.60
2006,07,23,14,17,29.60
2006,07,23,14,18,29.70
2006,07,23,14,19,29.70
2006,07,23,14,20,29.80
2006,07,23,14,21,29.90
2006,07,23,14,22,29.90
2006,07,23,14,23,30.00
2006,07,23,14,24,30.00
2006,07,23,14,25,30.10
2006,07,23,14,26,30.20
2006,07,23,14,27,30.30
2006,07,23,14,28,30.40
2006,07,23,14,29,30.40
2006,07,23,14,30,30.40
2006,07,23,14,31,30.40
2006,07,23,14,32,30.40
2006,07,23,14,33,30.40
2006,07,23,14,34,30.50
2006,07,23,14,35,30.50
2006,07,23,14,36,30.50
2006,07,23,14,37,30.50
2006,07,23,14,38,30.50
2006,07,23,14,39,30.60
2006,07,23,14,40,30.60
2006,07,23,14,41,30.60
2006,07,23,14,42,30.60
2006,07,23,14,43,30.70
2006,07,23,14,44,30.70
2006,07,23,14,45,30.70
2006,07,23,14,46,30.70
2006,07,23,14,47,30.70
2006,07,23,14,48,30.60
2006,07,23,14,49,30.60
2006,07,23,14,50,30.60
2006,07,23,14,51,30.60
2006,07,23,14,52,30.70
2006,07,23,14,53,30.60
2006,07,23,14,54,30.60
2006,07,23,14,55,30.60
2006,07,23,14,56,30.60
2006,07,23,14,57,30.60
2006,07,23,14,58,30.60
2006,07,23,14,59,30.60
2006,07,23,15,00,30.70
2006,07,23,15,01,30.70
2006,07,23,15,02,30.80
2006,07,23,15,03,30.90
2006,07,23,15,04,30.80
2006,07,23,15,05,30.80
2006,07,23,15,06,30.80
2006,07,23,15,07,30.80
2006,07,23,15,08,30.80
2006,07,23,15,09,30.80
2006,07,23,15,10,30.80
2006,07,23,15,11,30.90
2006,07,23,15,12,30.80
2006,07,23,15,13,30.90
2006,07,23,15,14,30.90
2006,07,23,15,15,30.90
2006,07,23,15,16,31.00
2006,07,23,15,17,31.10
2006,07,23,15,18,31.20
2006,07,23,15,19,31.30
2006,07,23,15,20,31.30
2006,07,23,15,21,31.30
2006,07,23,15,22,31.30
2006,07,23,15,23,31.40
2006,07,23,15,24,31.40
2006,07,23,15,25,31.40
2006,07,23,15,26,31.40
2006,07,23,15,27,31.40
2006,07,23,15,28,31.30
2006,07,23,15,29,31.30
2006,07,23,15,30,31.30
2006,07,23,15,31,31.30
2006,07,23,15,32,31.30
2006,07,23,15,33,31.30
2006,07,23,15,34,31.30
2006,07,23,15,35,31.30
2006,07,23,15,36,31.40
2006,07,23,15,37,31.40
2006,07,23,15,38,31.40
2006,07,23,15,39,31.40
2006,07,23,15,40,31.40
2006,07,23,15,41,31.30
2006,07,23,15,42,31.30
2006,07,23,15,43,31.30
2006,07,23,15,44,31.30
2006,07,23,15,45,31.20
2006,07,23,15,46,31.30
2006,07,23,15,47,31.30
2006,07,23,15,48,31.30
2006,07,23,15,49,31.30
2006,07,23,15,50,31.30
2006,07,23,15,51,31.30
2006,07,23,15,52,31.40
2006,07,23,15,53,31.40
2006,07,23,15,54,31.40
2006,07,23,15,55,31.50
2006,07,23,15,56,31.60
2006,07,23,15,57,31.60
2006,07,23,15,58,31.60
2006,07,23,15,59,31.60
2006,07,23,16,00,31.60
2006,07,23,16,01,31.60
2006,07,23,16,02,31.60
2006,07,23,16,03,31.60
2006,07,23,16,04,31.60
2006,07,23,16,05,31.40
2006,07,23,16,06,31.40
2006,07,23,16,07,31.50
2006,07,23,16,08,31.60
2006,07,23,16,09,31.60
2006,07,23,16,10,31.60
2006,07,23,16,11,31.70
2006,07,23,16,12,31.70
2006,07,23,16,13,31.70
2006,07,23,16,14,31.70
2006,07,23,16,15,31.70
2006,07,23,16,16,31.70
2006,07,23,16,17,31.60
2006,07,23,16,18,31.60
2006,07,23,16,19,31.60
2006,07,23,16,20,31.70
2006,07,23,16,21,31.70
2006,07,23,16,22,31.70
2006,07,23,16,23,31.70
2006,07,23,16,24,31.80
2006,07,23,16,25,31.80
2006,07,23,16,26,31.90
2006,07,23,16,27,31.90
2006,07,23,16,28,31.80
2006,07,23,16,29,31.90
2006,07,23,16,30,31.90
2006,07,23,16,31,32.00
2006,07,23,16,32,32.00
2006,07,23,16,33,32.00
2006,07,23,16,34,32.00
2006,07,23,16,35,32.10
2006,07,23,16,36,32.00
2006,07,23,16,37,31.90
2006,07,23,16,38,31.90
2006,07,23,16,39,31.80
2006,07,23,16,40,31.80
2006,07,23,16,41,31.90
2006,07,23,16,42,32.00
2006,07,23,16,43,32.00
2006,07,23,16,44,32.10
2006,07,23,16,45,32.10
2006,07,23,16,46,32.20
2006,07,23,16,47,32.20
2006,07,23,16,48,32.30
2006,07,23,16,49,32.30
2006,07,23,16,50,32.30
2006,07,23,16,51,32.10
2006,07,23,16,52,32.00
2006,07,23,16,53,32.00
2006,07,23,16,54,31.90
2006,07,23,16,55,31.90
2006,07,23,16,56,31.90
2006,07,23,16,57,32.00
2006,07,23,16,58,32.10
2006,07,23,16,59,32.10
2006,07,23,17,00,32.10
2006,07,23,17,01,32.10
2006,07,23,17,02,32.10
2006,07,23,17,03,32.10
2006,07,23,17,04,32.10
2006,07,23,17,05,32.10
2006,07,23,17,06,32.10
2006,07,23,17,07,32.10
2006,07,23,17,08,32.20
2006,07,23,17,09,32.20
2006,07,23,17,10,32.30
2006,07,23,17,11,32.30
2006,07,23,17,12,32.40
2006,07,23,17,13,32.50
2006,07,23,17,14,32.60
2006,07,23,17,15,32.60
2006,07,23,17,16,32.60
2006,07,23,17,17,32.60
2006,07,23,17,18,32.60
2006,07,23,17,19,32.50
2006,07,23,17,20,32.40